Location: Madrid
(40.4167°N, 3.7036°W)
Time: 02:12:19
(UTC+00:00)

ISS - Pass Details

Date: 11 May 2026
Orbit: 414 x 424 km, 51.6° (Epoch: 15 May)

Event Time Altitude Azimuth Distance (km) Brightness Sun altitude
Rises 19:37:50 0° 231° (SW) 2,337 0.4 -3.8°
Reaches altitude 10° 19:39:55 10° 231° (SW) 1,478 -0.7 -4.2°
Maximum altitude 19:43:14 86° 142° (SE) 418 -3.8 -4.7°
Drops below altitude 10° 19:46:35 10° 54° (NE) 1,487 -1.2 -5.3°
Sets 19:48:41 0° 54° (NE) 2,354 -0.2 -5.6°
